Location: Naloco
(16.5478°S, 37.1017°E)
Time: 01:51:09
(UTC+00:00)

CZ-2D R/B - Pass Details

Date: 13 August 2020
Orbit: 522 x 537 km, 97.4° (Epoch: 23 September)

Event Time Altitude Azimuth Distance (km) Brightness Sun altitude
Exits shadow 16:25:54 10° 161° (SSE) 1,804 5.7 -15.7°
Reaches altitude 10° 16:25:58 10° 161° (SSE) 1,771 5.6 -15.7°
Maximum altitude 16:29:45 62° 80° (E) 594 3.1 -16.6°
Drops below altitude 10° 16:33:29 10° 358° (N) 1,751 6.0 -17.4°
Sets 16:35:35 0° 355° (N) 2,633 7.0 -17.9°
